TimeCDT,TemperatureF,Dew PointF,Humidity,Sea Level PressureIn,VisibilityMPH,Wind Direction,Wind SpeedMPH,Gust SpeedMPH,PrecipitationIn,Events,Conditions,WindDirDegrees,DateUTC
12:13 AM,41.0,24.8,53,30.26,10.0,NNW,15.0,24.2,N/A,,Mostly Cloudy,330,2012-10-05 05:13:00
12:33 AM,39.2,24.8,56,30.25,10.0,NNW,11.5,18.4,N/A,,Scattered Clouds,340,2012-10-05 05:33:00
12:53 AM,39.2,24.8,56,30.25,10.0,NNW,11.5,19.6,N/A,,Clear,330,2012-10-05 05:53:00
1:14 AM,37.4,24.8,60,30.25,10.0,NNW,10.4,-,N/A,,Clear,330,2012-10-05 06:14:00
1:33 AM,37.4,26.6,65,30.25,10.0,NNW,9.2,16.1,N/A,,Clear,330,2012-10-05 06:33:00
1:53 AM,37.4,26.6,65,30.24,10.0,NNW,8.1,-,N/A,,Mostly Cloudy,330,2012-10-05 06:53:00
2:13 AM,37.4,26.6,65,30.24,10.0,NNW,9.2,-,N/A,,Mostly Cloudy,330,2012-10-05 07:13:00
2:33 AM,37.4,26.6,65,30.24,10.0,NW,6.9,-,N/A,,Mostly Cloudy,320,2012-10-05 07:33:00
3:13 AM,35.6,26.6,70,30.23,10.0,NW,8.1,-,N/A,,Clear,310,2012-10-05 08:13:00
3:33 AM,35.6,26.6,70,30.23,10.0,NW,9.2,-,N/A,,Clear,310,2012-10-05 08:33:00
3:54 AM,35.6,28.4,75,30.22,10.0,NW,10.4,-,N/A,,Clear,310,2012-10-05 08:54:00
4:13 AM,35.6,28.4,75,30.22,10.0,NW,12.7,18.4,N/A,,Clear,320,2012-10-05 09:13:00
4:33 AM,35.6,28.4,75,30.23,10.0,NW,10.4,-,N/A,,Clear,320,2012-10-05 09:33:00
4:54 AM,35.6,28.4,75,30.23,10.0,NW,12.7,-,N/A,,Clear,320,2012-10-05 09:54:00
5:13 AM,35.6,28.4,75,30.23,10.0,NW,11.5,-,N/A,,Clear,310,2012-10-05 10:13:00
5:33 AM,33.8,26.6,75,30.23,10.0,NW,11.5,-,N/A,,Clear,310,2012-10-05 10:33:00
5:54 AM,33.8,26.6,75,30.23,10.0,NW,8.1,-,N/A,,Clear,310,2012-10-05 10:54:00
6:13 AM,32.0,26.6,80,30.23,10.0,NW,9.2,-,N/A,,Clear,310,2012-10-05 11:13:00
6:33 AM,30.2,26.6,86,30.23,10.0,NW,9.2,-,N/A,,Clear,310,2012-10-05 11:33:00
6:54 AM,30.2,24.8,80,30.24,10.0,WNW,6.9,-,N/A,,Clear,300,2012-10-05 11:54:00
7:13 AM,28.4,24.8,86,30.24,10.0,WNW,9.2,-,N/A,,Clear,300,2012-10-05 12:13:00
7:33 AM,28.4,24.8,86,30.24,10.0,WNW,8.1,-,N/A,,Clear,300,2012-10-05 12:33:00
7:53 AM,28.4,24.8,86,30.24,10.0,NW,9.2,-,N/A,,Clear,310,2012-10-05 12:53:00
8:13 AM,30.2,24.8,80,30.24,10.0,NW,10.4,-,N/A,,Clear,310,2012-10-05 13:13:00
8:34 AM,30.2,24.8,80,30.24,10.0,NW,9.2,-,N/A,,Clear,310,2012-10-05 13:34:00
8:53 AM,30.2,24.8,80,30.25,10.0,NW,13.8,-,N/A,,Clear,320,2012-10-05 13:53:00
9:34 AM,35.6,23.0,60,30.24,10.0,NNW,15.0,21.9,N/A,,Clear,330,2012-10-05 14:34:00
10:13 AM,37.4,19.4,48,30.24,10.0,NNW,18.4,25.3,N/A,,Clear,330,2012-10-05 15:13:00
10:34 AM,37.4,21.2,52,30.24,10.0,NW,21.9,28.8,N/A,,Clear,320,2012-10-05 15:34:00
10:53 AM,37.4,21.2,52,30.24,10.0,NNW,23.0,29.9,N/A,,Clear,330,2012-10-05 15:53:00
11:13 AM,39.2,21.2,49,30.23,10.0,NW,17.3,25.3,N/A,,Clear,320,2012-10-05 16:13:00
11:34 AM,41.0,19.4,42,30.24,10.0,NNW,20.7,28.8,N/A,,Clear,340,2012-10-05 16:34:00
12:13 PM,42.8,19.4,39,30.23,10.0,NNW,19.6,26.5,N/A,,Clear,330,2012-10-05 17:13:00
12:33 PM,42.8,19.4,39,30.24,10.0,WNW,19.6,27.6,N/A,,Clear,300,2012-10-05 17:33:00
12:53 PM,42.8,19.4,39,30.24,10.0,NW,19.6,29.9,N/A,,Clear,320,2012-10-05 17:53:00
1:13 PM,42.8,17.6,36,30.24,10.0,NW,19.6,28.8,N/A,,Clear,320,2012-10-05 18:13:00
1:33 PM,44.6,17.6,34,30.24,10.0,NW,18.4,25.3,N/A,,Clear,320,2012-10-05 18:33:00
1:53 PM,44.6,17.6,34,30.23,10.0,NW,18.4,26.5,N/A,,Clear,310,2012-10-05 18:53:00
2:13 PM,44.6,17.6,34,30.22,10.0,NW,17.3,24.2,N/A,,Clear,310,2012-10-05 19:13:00
2:33 PM,44.6,17.6,34,30.22,10.0,NW,21.9,27.6,N/A,,Clear,320,2012-10-05 19:33:00
2:53 PM,46.4,17.6,32,30.21,10.0,NW,19.6,25.3,N/A,,Clear,310,2012-10-05 19:53:00
3:13 PM,46.4,15.8,29,30.21,10.0,NW,15.0,29.9,N/A,,Clear,320,2012-10-05 20:13:00
3:34 PM,46.4,15.8,29,30.21,10.0,NW,19.6,26.5,N/A,,Clear,310,2012-10-05 20:34:00
3:53 PM,46.4,15.8,29,30.20,10.0,NW,19.6,27.6,N/A,,Clear,320,2012-10-05 20:53:00
4:13 PM,44.6,15.8,31,30.20,10.0,NNW,19.6,28.8,N/A,,Clear,330,2012-10-05 21:13:00
4:34 PM,46.4,15.8,29,30.20,10.0,NW,19.6,26.5,N/A,,Clear,320,2012-10-05 21:34:00
4:53 PM,44.6,15.8,31,30.20,10.0,NNW,18.4,27.6,N/A,,Clear,330,2012-10-05 21:53:00
5:13 PM,44.6,14.0,29,30.20,10.0,NNW,17.3,27.6,N/A,,Clear,330,2012-10-05 22:13:00
5:34 PM,44.6,15.8,31,30.20,10.0,NNW,19.6,25.3,N/A,,Clear,330,2012-10-05 22:34:00
5:53 PM,44.6,15.8,31,30.20,10.0,NNW,15.0,26.5,N/A,,Clear,330,2012-10-05 22:53:00
6:13 PM,42.8,15.8,34,30.20,10.0,NW,13.8,20.7,N/A,,Clear,320,2012-10-05 23:13:00
6:34 PM,42.8,14.0,31,30.21,10.0,NNW,13.8,19.6,N/A,,Clear,340,2012-10-05 23:34:00
6:53 PM,41.0,14.0,33,30.22,10.0,NNW,12.7,20.7,N/A,,Clear,330,2012-10-05 23:53:00
7:13 PM,41.0,15.8,36,30.22,10.0,NNW,10.4,-,N/A,,Clear,330,2012-10-06 00:13:00
7:33 PM,39.2,15.8,39,30.22,10.0,NNW,11.5,16.1,N/A,,Clear,330,2012-10-06 00:33:00
7:53 PM,39.2,17.6,42,30.23,10.0,NNW,9.2,-,N/A,,Clear,330,2012-10-06 00:53:00
8:13 PM,37.4,17.6,45,30.24,10.0,NW,9.2,-,N/A,,Clear,320,2012-10-06 01:13:00
8:33 PM,37.4,17.6,45,30.24,10.0,NW,9.2,-,N/A,,Clear,320,2012-10-06 01:33:00
8:53 PM,35.6,17.6,48,30.24,10.0,NW,6.9,-,N/A,,Clear,320,2012-10-06 01:53:00
9:13 PM,33.8,17.6,52,30.25,10.0,NW,9.2,-,N/A,,Clear,320,2012-10-06 02:13:00
9:34 PM,33.8,17.6,52,30.25,10.0,NW,9.2,-,N/A,,Clear,320,2012-10-06 02:34:00
9:53 PM,33.8,19.4,56,30.26,10.0,NNW,9.2,-,N/A,,Clear,330,2012-10-06 02:53:00
10:13 PM,33.8,19.4,56,30.26,10.0,NW,6.9,-,N/A,,Clear,320,2012-10-06 03:13:00
10:33 PM,32.0,21.2,64,30.26,10.0,NNW,10.4,-,N/A,,Clear,330,2012-10-06 03:33:00
10:53 PM,32.0,21.2,64,30.26,10.0,NNW,9.2,-,N/A,,Clear,330,2012-10-06 03:53:00
11:33 PM,30.2,21.2,69,30.25,10.0,NW,5.8,-,N/A,,Clear,310,2012-10-06 04:33:00
11:53 PM,30.2,21.2,69,30.24,10.0,NW,5.8,-,N/A,,Scattered Clouds,320,2012-10-06 04:53:00